GW5799 Weather Reports


time (UTC)temp
F
wind
direction
speed
knots
gust
knots
rain 1hr
in
rain 24hr
in
rain mn
in
humidity
%
barometer
mb
20260506165305 57 124 3.5 4.3 0.00 0.00 0.00 67 1032.4
20260506164801 57 128 2.6 3.5 0.00 0.00 0.00 66 1032.3
20260506164258 57 114 3.5 7.0 0.00 0.00 0.00 65 1032.3
20260506163755 57 105 7.8 7.8 0.00 0.00 0.00 65 1032.5
20260506163249 57 114 4.3 7.8 0.00 0.00 0.00 65 1032.4
20260506162746 57 113 3.5 6.1 0.00 0.00 0.00 66 1032.5
20260506162244 57 95 5.2 6.1 0.00 0.00 0.00 65 1032.4
20260506161741 57 112 4.3 7.0 0.00 0.00 0.00 65 1032.5
20260506161238 57 102 5.2 7.0 0.00 0.00 0.00 65 1032.5
20260506160736 57 104 4.3 7.8 0.00 0.00 0.00 64 1032.7
20260506160232 57 96 7.0 7.8 0.00 0.00 0.00 64 1032.6
20260506155731 57 102 5.2 7.0 0.00 0.00 0.00 65 1032.5
20260506155228 56 107 4.3 4.3 0.00 0.00 0.00 67 1032.6
20260506153340 57 151 1.7 3.5 0.00 0.00 0.00 66 1032.4
20260506152837 56 142 4.3 4.3 0.00 0.00 0.00 66 1032.6
20260506152334 58 143 2.6 4.3 0.00 0.00 0.00 64 1032.4
20260506151833 58 131 3.5 4.3 0.00 0.00 0.00 64 1032.6
20260506151329 58 121 3.5 4.3 0.00 0.00 0.00 63 1032.7
20260506150826 59 123 5.2 6.1 0.00 0.00 0.00 61 1032.5
20260506150323 60 105 4.3 7.0 0.00 0.00 0.00 61 1032.5
20260506145820 59 107 2.6 5.2 0.00 0.00 0.00 63 1032.5
20260506145316 59 110 2.6 4.3 0.00 0.00 0.00 62 1032.5
20260506144814 59 102 4.3 7.0 0.00 0.00 0.00 63 1032.7
20260506144310 59 107 4.3 6.1 0.00 0.00 0.00 64 1032.5
20260506143809 59 102 3.5 4.3 0.00 0.00 0.00 64 1032.5
20260506143305 59 105 3.5 4.3 0.00 0.00 0.00 64 1032.6
20260506142804 59 102 3.5 4.3 0.00 0.00 0.00 64 1032.5
20260506142301 59 105 2.6 4.3 0.00 0.00 0.00 64 1032.6
20260506141759 59 124 3.5 4.3 0.00 0.00 0.00 64 1032.5
20260506141257 59 108 3.5 4.3 0.00 0.00 0.00 63 1032.6
20260506140755 59 107 4.3 5.2 0.00 0.00 0.00 64 1032.5
20260506140251 59 103 4.3 6.1 0.00 0.00 0.00 64 1032.7
20260506135749 59 109 4.3 4.3 0.00 0.00 0.00 64 1032.5
20260506135245 59 109 4.3 4.3 0.00 0.00 0.00 65 1032.4
20260506134742 59 121 3.5 4.3 0.00 0.00 0.00 65 1032.6
20260506134238 59 112 2.6 3.5 0.00 0.00 0.00 65 1032.5
20260506133735 59 112 3.5 4.3 0.00 0.00 0.00 65 1032.5
20260506133232 60 129 2.6 2.6 0.00 0.00 0.00 64 1032.6
20260506132729 60 124 2.6 6.1 0.00 0.00 0.00 63 1032.5
20260506132226 60 131 4.3 6.1 0.00 0.00 0.00 63 1032.4
20260506131724 60 125 7.0 8.7 0.00 0.00 0.00 64 1032.4
20260506131219 60 125 4.3 6.1 0.00 0.00 0.00 66 1032.5
20260506130717 59 130 4.3 6.1 0.00 0.00 0.00 66 1032.3
20260506130214 60 131 5.2 7.0 0.00 0.00 0.00 66 1032.4
20260506125712 60 135 3.5 5.2 0.00 0.00 0.00 66 1032.3
20260506125209 60 127 4.3 7.0 0.00 0.00 0.00 66 1032.0
20260506124707 60 126 3.5 5.2 0.00 0.00 0.00 66 1032.3
20260506124205 60 117 5.2 6.1 0.00 0.00 0.00 67 1032.2
20260506123702 60 120 5.2 5.2 0.00 0.00 0.00 67 1032.1
20260506123201 60 126 5.2 6.1 0.00 0.00 0.00 67 1032.1
20260506122657 60 130 3.5 6.1 0.00 0.00 0.00 66 1032.1
20260506122155 60 136 4.3 7.0 0.00 0.00 0.00 66 1031.9
20260506121652 60 140 4.3 5.2 0.00 0.00 0.00 67 1032.0
20260506121148 60 123 3.5 4.3 0.00 0.00 0.00 66 1031.8
20260506120647 61 123 2.6 5.2 0.00 0.00 0.00 66 1031.8
20260506120143 61 136 4.3 5.2 0.00 0.00 0.00 66 1031.8
20260506115642 61 120 2.6 4.3 0.00 0.00 0.00 65 1031.9
20260506115140 61 128 3.5 5.2 0.00 0.00 0.00 65 1031.8
20260506114637 61 123 2.6 5.2 0.00 0.00 0.00 65 1031.7
20260506114135 61 133 3.5 5.2 0.00 0.00 0.00 65 1031.7
20260506113633 61 128 4.3 5.2 0.00 0.00 0.00 65 1031.7
20260506113130 61 131 6.1 7.0 0.00 0.00 0.00 65 1031.7
20260506112626 61 140 4.3 5.2 0.00 0.00 0.00 65 1031.5
20260506112124 61 145 4.3 6.1 0.00 0.00 0.00 64 1031.5
20260506111621 62 136 2.6 5.2 0.00 0.00 0.00 64 1031.4
20260506111119 62 139 3.5 4.3 0.00 0.00 0.00 64 1031.4
20260506110616 62 139 2.6 3.5 0.00 0.00 0.00 63 1031.4
20260506110113 62 138 2.6 3.5 0.00 0.00 0.00 63 1031.3
20260506105609 63 125 2.6 3.5 0.00 0.00 0.00 62 1031.3
20260506105106 63 140 2.6 3.5 0.00 0.00 0.00 62 1031.3
20260506104605 63 140 3.5 4.3 0.00 0.00 0.00 61 1031.3
20260506104102 63 146 2.6 4.3 0.00 0.00 0.00 61 1031.4
20260506103559 64 143 3.5 3.5 0.00 0.00 0.00 61 1031.3
20260506103056 64 146 2.6 3.5 0.00 0.00 0.00 60 1031.2
20260506102554 64 139 1.7 2.6 0.00 0.00 0.00 59 1031.3
20260506102051 64 140 2.6 3.5 0.00 0.00 0.00 59 1031.3
20260506101548 65 121 1.7 2.6 0.00 0.00 0.00 58 1031.2
20260506101045 65 135 1.7 2.6 0.00 0.00 0.00 57 1031.2
20260506100543 65 124 2.6 3.5 0.00 0.00 0.00 57 1031.2
20260506100041 66 123 2.6 3.5 0.00 0.00 0.00 56 1031.0
20260506095540 66 103 3.5 4.3 0.00 0.00 0.00 55 1031.0
20260506095035 66 115 2.6 4.3 0.00 0.00 0.00 55 1030.9
20260506094533 67 116 3.5 5.2 0.00 0.00 0.00 55 1031.0
20260506094031 67 122 3.5 3.5 0.00 0.00 0.00 55 1030.8
20260506093529 67 126 2.6 3.5 0.00 0.00 0.00 54 1030.9
20260506093026 68 98 3.5 4.3 0.00 0.00 0.00 53 1030.9
20260506092524 68 110 3.5 5.2 0.00 0.00 0.00 52 1030.8
20260506092020 69 120 2.6 6.1 0.00 0.00 0.00 51 1030.8
20260506091519 69 118 3.5 6.1 0.00 0.00 0.00 51 1030.6
20260506091016 69 113 2.6 4.3 0.00 0.00 0.00 51 1030.7
20260506090514 70 126 6.1 7.0 0.00 0.00 0.00 50 1030.7
20260506090010 70 96 7.0 9.6 0.00 0.00 0.00 50 1030.8
20260506085507 71 107 3.5 7.0 0.00 0.00 0.00 49 1030.6
20260506085003 71 119 4.3 6.1 0.00 0.00 0.00 49 1030.6
20260506084500 71 132 5.2 9.6 0.00 0.00 0.00 49 1030.6
20260506083956 71 130 7.0 8.7 0.00 0.00 0.00 49 1030.6
20260506083453 71 100 7.8 9.6 0.00 0.00 0.00 48 1030.6
20260506082950 71 119 5.2 10.4 0.00 0.00 0.00 48 1030.5
20260506082448 71 101 7.8 9.6 0.00 0.00 0.00 47 1030.5
20260506081943 71 98 8.7 8.7 0.00 0.00 0.00 48 1030.5
20260506081442 71 105 4.3 8.7 0.00 0.00 0.00 48 1030.4
20260506080939 71 124 6.1 10.4 0.00 0.00 0.00 48 1030.4
20260506080436 71 94 5.2 11.3 0.00 0.00 0.00 47 1030.4
20260506073420 72 110 7.0 13.0 0.00 0.00 0.00 47 1030.2
20260506072917 73 114 4.3 11.3 0.00 0.00 0.00 47 1030.3
20260506072414 72 96 4.3 8.7 0.00 0.00 0.00 48 1030.4
20260506071912 73 104 6.1 7.0 0.00 0.00 0.00 47 1030.4
20260506071410 72 81 7.8 10.4 0.00 0.00 0.00 47 1030.3
20260506070906 72 84 8.7 11.3 0.00 0.00 0.00 47 1030.3
20260506070403 72 101 5.2 9.6 0.00 0.00 0.00 49 1030.3
20260506062340 72 115 5.2 11.3 0.00 0.00 0.00 48 1030.1
20260506061836 73 143 7.8 13.0 0.00 0.00 0.00 48 1030.2
20260506061333 73 146 4.3 9.6 0.00 0.00 0.00 46 1030.2
20260506060831 73 88 7.0 12.2 0.00 0.00 0.00 48 1030.3
20260506060329 73 104 7.8 10.4 0.00 0.00 0.00 48 1030.2
20260506051300 71 113 2.6 8.7 0.00 0.00 0.00 52 1030.2
20260506050758 71 86 6.1 12.2 0.00 0.00 0.00 51 1030.4
20260506050256 72 92 8.7 10.4 0.00 0.00 0.00 52 1030.4
20260506044746 71 86 6.1 13.0 0.00 0.00 0.00 53 1030.6
20260506044243 71 87 6.1 12.2 0.00 0.00 0.00 53 1030.6
20260506043741 70 117 11.3 13.0 0.00 0.00 0.00 54 1030.8
20260506043238 71 128 4.3 9.6 0.00 0.00 0.00 54 1030.9
20260506042737 71 61 5.2 9.6 0.00 0.00 0.00 54 1030.9
20260506042235 70 49 7.0 11.3 0.00 0.00 0.00 54 1031.0
20260506041733 71 59 6.1 9.6 0.00 0.00 0.00 54 1031.1
20260506041230 70 84 6.1 10.4 0.00 0.00 0.00 54 1031.2
20260506040727 70 32 7.8 10.4 0.00 0.00 0.00 54 1031.3
20260506040224 69 45 8.7 13.0 0.00 0.00 0.00 54 1031.4
20260506035721 69 25 7.8 11.3 0.00 0.00 0.00 55 1031.2
20260506035218 69 93 7.8 10.4 0.00 0.00 0.00 56 1031.3
20260506034714 69 127 5.2 8.7 0.00 0.00 0.00 56 1031.4
20260506034212 69 85 7.8 11.3 0.00 0.00 0.00 56 1031.4
20260506033709 69 75 7.0 11.3 0.00 0.00 0.00 57 1031.6
20260506033206 68 85 1.7 7.0 0.00 0.00 0.00 58 1031.5
20260506032703 68 72 7.8 8.7 0.00 0.00 0.00 58 1031.7
20260506032200 68 87 8.7 14.8 0.00 0.00 0.00 59 1031.7
20260506031657 68 69 7.0 13.0 0.00 0.00 0.00 58 1031.7
20260506031154 68 111 8.7 11.3 0.00 0.00 0.00 58 1031.7
20260506030652 67 46 3.5 13.0 0.00 0.00 0.00 60 1031.8
20260506030149 67 99 7.0 11.3 0.00 0.00 0.00 59 1031.8
20260506025646 67 91 7.0 11.3 0.00 0.00 0.00 60 1031.7
20260506025142 67 88 8.7 9.6 0.00 0.00 0.00 59 1031.7
20260506024640 66 74 7.0 11.3 0.00 0.00 0.00 60 1032.0
20260506024136 66 87 7.8 12.2 0.00 0.00 0.00 61 1031.9
20260506023632 66 87 7.0 11.3 0.00 0.00 0.00 60 1031.9
20260506023129 66 103 7.0 13.9 0.00 0.00 0.00 60 1032.0
20260506022627 66 111 11.3 12.2 0.00 0.00 0.00 61 1032.0
20260506022124 65 81 7.8 12.2 0.00 0.00 0.00 61 1032.0
20260506021621 65 72 7.0 13.0 0.00 0.00 0.00 62 1032.1
20260506021119 65 85 9.6 12.2 0.00 0.00 0.00 62 1032.0
20260506020616 64 77 8.7 15.6 0.00 0.00 0.00 63 1032.2
20260506020113 64 78 9.6 13.0 0.00 0.00 0.00 63 1032.0
20260506015611 64 84 11.3 17.4 0.00 0.00 0.00 63 1032.2
20260506015107 64 80 7.0 13.0 0.00 0.00 0.00 65 1032.1
20260506014605 63 87 12.2 15.6 0.00 0.00 0.00 65 1032.1
20260506014100 64 67 7.8 16.5 0.00 0.00 0.00 64 1032.1
20260506013559 63 66 9.6 13.9 0.00 0.00 0.00 64 1032.0
20260506013055 63 66 9.6 13.9 0.00 0.00 0.00 65 1032.0
20260506012551 62 64 9.6 15.6 0.00 0.00 0.00 66 1032.0
20260506012048 63 81 11.3 13.9 0.00 0.00 0.00 66 1031.9
20260506011546 63 83 7.8 12.2 0.00 0.00 0.00 67 1032.3
20260506011042 62 87 7.0 12.2 0.00 0.00 0.00 67 1032.0
20260506010542 62 88 7.0 11.3 0.00 0.00 0.00 68 1032.0
20260506010038 62 84 14.8 17.4 0.00 0.00 0.00 68 1032.0
20260506005535 61 103 6.1 9.6 0.00 0.00 0.00 70 1032.0
20260506005031 61 81 7.8 13.0 0.00 0.00 0.00 69 1031.7
20260506004528 61 97 9.6 11.3 0.00 0.00 0.00 70 1031.8
20260506004025 60 96 5.2 11.3 0.00 0.00 0.00 70 1031.8
20260506003521 60 126 4.3 8.7 0.00 0.00 0.00 70 1031.8
20260506003017 60 99 5.2 11.3 0.00 0.00 0.00 71 1031.7
20260506002514 59 96 7.0 9.6 0.00 0.00 0.00 71 1031.8
20260506002009 59 93 7.0 11.3 0.00 0.00 0.00 71 1031.6
20260506001506 59 107 6.1 9.6 0.00 0.00 0.00 71 1031.9
20260506001003 59 97 5.2 8.7 0.00 0.00 0.00 72 1031.7
20260506000500 59 99 7.0 9.6 0.00 0.00 0.00 72 1031.7
20260505235957 58 93 7.8 9.6 0.00 0.00 0.00 73 1031.4
20260505235456 58 76 7.8 12.2 0.00 0.00 0.00 73 1031.4
20260505234952 58 98 6.1 9.6 0.00 0.00 0.00 74 1031.3
20260505234450 57 73 7.0 11.3 0.00 0.00 0.00 74 1031.4
20260505233946 57 91 5.2 13.0 0.00 0.00 0.00 75 1031.2
20260505233444 57 85 7.0 11.3 0.00 0.00 0.00 75 1030.9
20260505232941 57 94 4.3 9.6 0.00 0.00 0.00 76 1031.1
20260505232439 56 89 7.0 12.2 0.00 0.00 0.00 76 1030.9
20260505231936 56 82 8.7 11.3 0.00 0.00 0.00 76 1031.0
20260505231433 56 95 7.0 11.3 0.00 0.00 0.00 77 1030.9
20260505230931 56 86 4.3 11.3 0.00 0.00 0.00 77 1030.7
20260505230429 55 113 8.7 11.3 0.00 0.00 0.00 77 1030.8
20260505225925 56 96 7.0 11.3 0.00 0.00 0.00 77 1030.7
20260505225422 56 98 7.8 12.2 0.00 0.00 0.00 77 1030.6
20260505224917 56 91 7.0 10.4 0.00 0.00 0.00 77 1030.5
20260505224415 56 88 6.1 13.0 0.00 0.00 0.00 77 1030.5
20260505223912 56 97 7.8 12.2 0.00 0.00 0.00 77 1030.5
20260505223409 55 104 4.3 13.0 0.00 0.00 0.00 78 1030.6
20260505222905 55 108 9.6 11.3 0.00 0.00 0.00 78 1030.5
20260505222401 55 100 8.7 13.0 0.00 0.00 0.00 78 1030.4
20260505221858 55 99 7.8 11.3 0.00 0.00 0.00 79 1030.5
20260505221355 55 112 8.7 9.6 0.00 0.00 0.00 79 1030.4
20260505220852 55 114 5.2 9.6 0.00 0.00 0.00 78 1030.2
20260505220349 55 124 6.1 11.3 0.00 0.00 0.00 78 1030.3
20260505215847 55 125 7.8 9.6 0.00 0.00 0.00 77 1030.2
20260505215345 56 117 6.1 8.7 0.00 0.00 0.00 77 1030.3
20260505214842 56 100 6.1 12.2 0.00 0.00 0.00 76 1030.2
20260505214340 56 105 7.0 10.4 0.00 0.00 0.00 77 1030.3
20260505213837 56 107 6.1 12.2 0.00 0.00 0.00 77 1030.2
20260505213335 56 101 8.7 12.2 0.00 0.00 0.00 77 1029.9
20260505212830 56 100 7.0 11.3 0.00 0.00 0.00 76 1030.0
20260505212328 56 124 8.7 13.0 0.00 0.00 0.00 77 1029.9
20260505211823 56 111 8.7 11.3 0.00 0.00 0.00 76 1029.9
20260505211322 56 91 8.7 11.3 0.00 0.00 0.00 77 1029.8
20260505210818 56 102 6.1 10.4 0.00 0.00 0.00 76 1030.0
20260505210315 56 89 6.1 9.6 0.00 0.00 0.00 76 1029.9
20260505205812 56 112 8.7 13.0 0.00 0.00 0.00 76 1029.8
20260505205310 56 103 7.8 12.2 0.00 0.00 0.00 76 1030.0
20260505204806 56 84 6.1 12.2 0.00 0.00 0.00 76 1029.9
20260505204304 56 91 7.0 13.0 0.00 0.00 0.00 76 1029.9
20260505203801 56 97 7.8 13.0 0.00 0.00 0.00 76 1029.8
20260505203258 56 92 6.1 12.2 0.00 0.00 0.00 76 1029.7
20260505202754 56 89 6.1 11.3 0.00 0.00 0.00 76 1029.8
20260505202250 56 87 7.0 10.4 0.00 0.00 0.00 76 1029.7
20260505201747 56 84 7.0 13.0 0.00 0.00 0.00 76 1029.4
20260505201244 56 88 7.8 12.2 0.00 0.00 0.00 75 1029.6
20260505200743 56 83 9.6 10.4 0.00 0.00 0.00 76 1029.7
20260505200240 56 89 6.1 11.3 0.00 0.00 0.00 76 1029.8
20260505195735 56 101 6.1 10.4 0.00 0.00 0.00 76 1029.6
20260505195233 55 114 7.0 8.7 0.00 0.00 0.00 76 1029.8
20260505194730 55 102 4.3 8.7 0.00 0.00 0.00 75 1029.7
20260505194226 55 100 6.1 7.0 0.00 0.00 0.00 75 1029.7
20260505193722 55 102 2.6 6.1 0.00 0.00 0.00 75 1029.7
20260505193219 55 98 3.5 7.0 0.00 0.00 0.00 75 1029.7
20260505192718 55 119 7.0 8.7 0.00 0.00 0.00 75 1029.7
20260505192215 55 93 5.2 8.7 0.00 0.00 0.00 75 1029.7
20260505191713 55 94 5.2 8.7 0.00 0.00 0.00 75 1029.5
20260505191211 55 110 6.1 7.0 0.00 0.00 0.00 74 1029.6
20260505190707 55 123 6.1 7.0 0.00 0.00 0.00 74 1029.8
20260505190207 55 109 4.3 8.7 0.00 0.00 0.00 74 1029.8
20260505185704 55 109 4.3 6.1 0.00 0.00 0.00 73 1029.8
20260505185200 55 123 7.0 8.7 0.00 0.00 0.00 73 1029.6
20260505184656 55 111 7.0 7.0 0.00 0.00 0.00 73 1029.7
20260505184154 55 125 6.1 7.8 0.00 0.00 0.00 73 1029.6
20260505183651 55 108 4.3 7.0 0.00 0.00 0.00 72 1029.5
20260505183148 56 106 7.8 9.6 0.00 0.00 0.00 72 1029.5
20260505182645 55 118 7.0 8.7 0.00 0.00 0.00 72 1029.8
20260505182142 55 117 6.1 7.8 0.00 0.00 0.00 72 1029.8
20260505181638 55 119 4.3 7.8 0.00 0.00 0.00 72 1029.7
20260505181136 55 132 6.1 7.8 0.00 0.00 0.00 72 1029.6
20260505180631 55 118 7.0 7.8 0.00 0.00 0.00 72 1029.7
20260505180129 56 115 5.2 7.8 0.00 0.00 0.00 71 1029.7
20260505175625 56 126 5.2 6.1 0.00 0.00 0.00 71 1029.6
20260505175121 56 116 6.1 8.7 0.00 0.00 0.00 71 1029.5
20260505174618 56 115 7.0 7.8 0.00 0.00 0.00 70 1029.6
20260505174114 57 104 4.3 7.8 0.00 0.00 0.00 70 1029.5
20260505173611 57 114 7.0 8.7 0.00 0.00 0.00 69 1029.5
20260505173108 57 117 7.0 9.6 0.00 0.00 0.00 69 1029.2
20260505172605 57 127 7.8 7.8 0.00 0.00 0.00 70 1029.3
20260505172102 57 129 7.8 8.7 0.00 0.00 0.00 70 1029.4
20260505171556 57 128 5.2 7.0 0.00 0.00 0.00 70 1029.4
20260505171054 57 116 5.2 7.0 0.00 0.00 0.00 70 1029.3
20260505170550 57 110 4.3 8.7 0.00 0.00 0.00 70 1029.3
20260505170047 57 113 5.2 8.7 0.00 0.00 0.00 69 1029.3
20260505165542 57 118 5.2 7.8 0.00 0.00 0.00 69 1029.3